Flag for Switzerland Weather past 2 weeks in Lugano, Switzerland

Now
46 °F

Passing clouds.


Feels Like: 41 °F
Forecast: 30 / 53 °F
Wind: 13 mph from Northeast

Location: Lugano Airport

Current Time: Mar 5, 2015 at 9:28:40 PM

Latest Report: Mar 5, 2015 at 8:50 PM


Visibility: N/A

Pressure: 30.27 "Hg

Humidity: 17%

Dew point: 3 °F

Location of LuganoLocation

Historic Weather in Lugano — Graph

°F

Lugano temperature yesterday

Maximum temperature yesterday: 54 °F (at 12:50 PM)
Minimum temperature yesterday: 34 °F (at 7:20 AM)
Average temperature yesterday: 45 °F

Past Weeks' High & Low Weather Summary

 TemperatureHumidityPressure
High61 °F (Mar 3, 12:50 PM)100% (Feb 19, 1:50 AM)30.60 "Hg (Feb 19, 1:50 AM)
Low27 °F (Feb 20, 6:50 AM)17% (Mar 3, 1:50 PM)29.56 "Hg (Feb 22, 2:50 AM)
Average43 °F62%29.98 "Hg
* Reported Feb 18 8:20 PM — Mar 5 8:20 PM, Lugano, Weather by CustomWeather, © 2015

Note: Actual official high and low records may vary slightly from our data, if they occured in-between our weather recording intervals... More about our weather records

Advertising

Lugano weather history for previous 24 hours

 ConditionsComfort  
Time TempWeatherWind HumidityBarometerVisibility
8:20 PM
Thu, Mar 5
48 °FPassing clouds.13 mph17%30.27 "HgN/A
7:50 PM46 °FPassing clouds.15 mph18%30.27 "HgN/A
7:20 PM48 °FPassing clouds.15 mph17%30.27 "HgN/A
6:50 PM48 °FPassing clouds.14 mph17%30.24 "HgN/A
6:20 PM48 °FPassing clouds.16 mph18%30.24 "HgN/A
5:50 PM50 °FPassing clouds.16 mph17%30.21 "HgN/A
5:20 PM50 °FPassing clouds.18 mph17%30.21 "HgN/A
4:50 PM52 °FPassing clouds.17 mph17%30.21 "HgN/A
4:20 PM52 °FPassing clouds.18 mph19%30.21 "HgN/A
3:50 PM52 °FPassing clouds.17 mph19%30.21 "HgN/A
3:20 PM52 °FPassing clouds.17 mph19%30.21 "HgN/A
2:50 PM54 °FPassing clouds.21 mph18%30.18 "HgN/A
2:20 PM54 °FPassing clouds.17 mph21%30.18 "HgN/A
1:50 PM52 °FPassing clouds.18 mph19%30.21 "HgN/A
1:20 PM52 °FPassing clouds.20 mph22%30.21 "HgN/A
12:50 PM52 °FPassing clouds.20 mph19%30.24 "HgN/A
12:20 PM50 °FPassing clouds.24 mph20%30.24 "HgN/A
11:50 AM50 °FPassing clouds.20 mph20%30.24 "HgN/A
11:20 AM50 °FPassing clouds.16 mph20%30.24 "HgN/A
10:50 AM50 °FPassing clouds.14 mph20%30.24 "HgN/A
10:20 AM50 °FPassing clouds.18 mph22%30.21 "HgN/A
9:50 AM50 °FPassing clouds.10 mph19%30.21 "HgN/A
9:20 AM48 °FPassing clouds.17 mph18%30.24 "HgN/A
8:50 AM46 °FPassing clouds.16 mph20%30.21 "HgN/A
8:20 AM46 °FPassing clouds.17 mph21%30.21 "HgN/A
7:50 AM46 °FPassing clouds.14 mph21%30.18 "HgN/A
7:20 AM45 °FPassing clouds.14 mph23%30.18 "HgN/A
6:50 AM45 °FPassing clouds.8 mph21%30.18 "HgN/A
6:20 AM46 °FPassing clouds.16 mph21%30.18 "HgN/A
5:20 AM46 °FPassing clouds.17 mph21%30.18 "HgN/A
4:20 AM46 °FPassing clouds.20 mph21%30.18 "HgN/A
3:50 AM46 °FCool.17 mph21%30.18 "HgN/A
2:50 AM46 °FCool.22 mph23%30.18 "HgN/A
2:20 AM46 °FCool.17 mph23%30.18 "HgN/A
1:50 AM46 °FClear.21 mph23%30.18 "HgN/A
1:20 AM46 °FClear.15 mph21%30.18 "HgN/A
12:50 AM48 °FClear.15 mph20%30.15 "HgN/A
12:20 AM46 °FPassing clouds.16 mph23%30.15 "HgN/A
11:50 PM
Wed, Mar 4
48 °FCool.22 mph23%30.12 "HgN/A
11:20 PM48 °FPassing clouds.23 mph23%30.12 "HgN/A
10:20 PM48 °FCool.22 mph23%30.12 "HgN/A
9:50 PM48 °FPassing clouds.20 mph23%30.12 "HgN/A
9:20 PM48 °FPartly cloudy.16 mph23%30.12 "HgN/A
Weather by CustomWeather, © 2015

See weather overviewHow to use our weather pages